User: anonymous   Login
Location: Unspecified
(0.0000°N, 0.0000°E)
Time: 08:34:08
(UTC+00:00)
Language:

FORMOSAT 3F - Orbit

View from above orbital plane
View from above orbital plane
View from above satellite
View from above satellite

Ground track
Ground track

The orbit data is extracted from the following two-line orbital elements,

1 29052U 06011F   19345.82579992 +.00000055 +00000-0 +37632-4 0  9994
2 29052 072.0332 192.7445 0041056 330.8838 029.0009 14.28882800712751
Epoch (UTC): 11 December 2019 19:49:09
Eccentricity: 0.0041056
inclination: 72.0332°
perigee height: 766 km
apogee height: 825 km
right ascension of ascending node: 192.7445°
argument of perigee: 330.8838°
revolutions per day: 14.28882800
mean anomaly at epoch: 29.0009°
orbit number at epoch: 71275

The dashed part of the orbit path shows where the satellite is in the earth's shadow,  

DLR